ニート彗星

368P/NEAT (2018)

English version
Home page
Updated on May 20, 2019

---------------------------------------------------------------------

・ プロフィール

符号 368P/2018 L3
検出日 2018年6月13日
検出光度 19.4等
検出者 E. Schwab (Egelsbach, Germany), D. Abreu (European Space Agency's Optical Ground Station at Tenerife)

・ 写真集

・ 軌道要素

Epoch 2018 Aug. 30.0 TT = JDT 2458360.5
T 2018 Sept. 14.25234 TT                                MPCW
q   2.0677913            (2000.0)            P               Q
n   0.07589185     Peri.  118.80549     +0.92629613     -0.27164352
a   5.5250892      Node   257.97762     +0.17794359     +0.92622952
e   0.6257452      Incl.   15.48457     +0.33213183     +0.26135929
P  12.99
From 713 observations 2005 July 5-2019 Feb. 8, mean residual 0".5.

・ 星図

・ 光度変化

        m1 = 13.5 + 5 logΔ + 10.0 log r

---------------------------------------------------------------------

軌道要素はM.P.E.C. 2019-J142に掲載されたものです。
星図はステラナビゲータ Ver.10 (アストロアーツ) で作成したものです。
光度グラフはComet for Windowsで作成したものです。

---------------------------------------------------------------------

Copyright(C) Seiichi Yoshida (comet@aerith.net). All rights reserved.